Location: Zagreb
(45.8000°N, 16.0000°E)
Time: 20:07:28
(UTC+02:00)

A-11 Canister half - Pass Details

Date: 09 August 2022
Orbit: 1524 x 1684 km, 47.3° (Epoch: 05 October)

Event Time Altitude Azimuth Distance (km) Brightness Sun altitude
Rises 13:32:48 0° 293° (WNW) 4,921 11.6 59.3°
Reaches altitude 10° 13:36:11 10° 287° (WNW) 3,916 11.3 59.1°
Maximum altitude 13:45:20 43° 221° (SW) 2,168 11.5 58.6°
Drops below altitude 10° 13:54:13 10° 154° (SSE) 3,791 11.5 58.0°
Sets 13:57:27 0° 148° (SSE) 4,751 11.8 57.8°
